STARLINK-2014 (47637 NORAD) Tracking and Keplerian Element Data

This shows tracking and keplerian element data for the satellite.

Feedback or suggestion? Click here.




ElementValue
Catalog47637
NameSTARLINK-2014
Epoch Orbit282
Epoch Day60.16668981
Epoch Year2021
RAAN36.837
Inclination53.0498
Eccentricity0.0001496
Argument of Perigee102.8495
Mean Anonmoly15.0791
Mean Motion15.86592791
Decay Rate0.000566
L11 47637U 21012T 21060.16668981 .00056600 00000-0 22007-3 0 9998
L22 47637 53.0498 36.8370 0001496 102.8495 15.0791 15.86592791 2822

Live tracking and technical data element details for STARLINK-2014 (NORAD 47637). STARLINK-2014 can be tracked NOW for your location showing map with azimuth and elevation plus other details from your city location.

Track the satellite on the map from your city or location and see movement details for azimuth, elevation, latitude, longitude, range, height, and movement on the map or in text.







IsCatalogInMostPopularTable: catalog: 47637, numindb: 5
Update: records affected: 1



GetName: 47637 STARLINK-2014

Hit Count: updated at: Mon, 01 Mar 2021 16:18:40 GMT